Weather observations for the past three days for
Sioux Falls, Foss Field
Imperial (Metric)
Date Time (cdt) Wind (mph) Vis. (mi.) Weather Sky Cond. Temperature (ºF) Relative Humidity Wind Chill (°F) Heat Index (°F) Pressure Precipitation (in)
Air Dwpt 6 hour altimeter (in) sea level (mb) 1 hr 3 hr 6 hr
Max. Min.
22 03:56 SE 7 10.00 Overcast BKN041 OVC048 69.1 66 90% 29.87 1010.7
22 02:56 NE 5 10.00 Overcast SCT006 BKN010 OVC050 68 66.9 96% 29.89 1011.3
22 01:56 Vrbl 3 10.00 Overcast OVC055 69.1 66.9 93% 29.89 1011.6
22 00:56 Vrbl 7 10.00 Overcast SCT007 BKN070 OVC110 69.1 66.9 73 66.9 93% 29.9 1011.8 1.52
21 23:56 E 8 10.00 Light Rain FEW005 SCT100 OVC120 68 66 93% 29.9 1012.1 0.09
21 22:56 SE 6 7.00 Light Rain OVC110 68 66.9 96% 29.96 1013.9 1.03
21 21:56 S 6 2.00 Thunderstorm Heavy Rain Fog/Mist FEW027 BKN035CB OVC100 68 66.9 96% 29.97 1014.5 0.38 0.4
21 20:56 Calm 8.00 Light Rain SCT060 BKN095 BKN120 OVC140 69.1 66.9 93% 29.94 1013.2 0.02
21 18:56 N 17 G 30 10.00 Overcast FEW004 BKN017 OVC095 73 66.9 78.1 69.1 81% 29.94 1013.3 0.01
21 17:56 E 13 G 20 10.00 Mostly Cloudy FEW004 SCT015 BKN080 77 70 79% 79 29.94 1013.3
21 16:56 NE 13 10.00 Overcast FEW004 SCT015 OVC050 75.9 70 82% 77 29.98 1014.6
21 15:56 NE 9 10.00 Overcast FEW004 BKN050 OVC065 75.9 70 82% 77 30.01 1015.4 0.01
21 14:56 NE 9 10.00 Mostly Cloudy FEW004 SCT055 BKN100 77 70 79% 79 30.04 1016.4
21 13:56 E 9 10.00 Mostly Cloudy SCT004 BKN036 BKN045 71.1 69.1 94% 30.07 1017.7 0.01
21 12:56 NE 6 2.00 Light Rain Fog/Mist BKN004 BKN031 OVC090 69.1 66.9 69.1 66 93% 30.07 1018.0 0.24 0.53
21 11:56 E 3 6.00 Rain Fog/Mist BKN004 OVC090 68 66.9 96% 30.1 0.0 0.11
21 10:56 E 6 7.00 Light Rain BKN005 OVC060 66.9 66 97% 30.11 1019.2 0.06
21 09:56 E 7 8.00 Light Rain OVC006 66.9 64.9 93% 30.11 1019.3 0.09 0.12
21 08:56 E 7 6.00 Light Rain Fog/Mist FEW025 BKN080 OVC100 66.9 63 87% 30.13 1019.8 0.03
21 07:56 E 9 9.00 Light Rain SCT060 OVC095 66 63 90% 30.12 1019.7
21 06:56 E 8 10.00 Overcast SCT100 OVC150 66 63 66 64 90% 30.11 1019.1 0.94
21 05:56 E 12 10.00 Overcast SCT060 BKN110 OVC150 66 63 90% 30.11 1019.4 0.03
21 04:56 E 14 10.00 Overcast FEW060 BKN090 OVC200 66 63 90% 30.1 1019.0
21 03:56 E 10 G 22 10.00 Light Rain FEW006 BKN080 OVC110 64.9 64 97% 30.13 1020.1 0.28 0.91
21 02:56 Vrbl 5 2.50 Thunderstorm Heavy Rain Fog/Mist BKN044 OVC055 64.9 63 93% 30.23 1023.5 0.4
21 01:56 E 13 5.00 Thunderstorm in Vicinity Rain Fog/Mist BKN048 OVC070 64.9 63 93% 30.16 1021.3 0.23
21 00:56 E 20 6.00 Thunderstorm in Vicinity Light Rain Fog/Mist SCT035 OVC070 64.9 63 66 63 93% 30.2 1022.5 1.78 2.17
20 22:56 E 17 G 26 3.00 Thunderstorm Heavy Rain Fog/Mist FEW005CB OVC038 63 62.1 97% 30.16 1021.1 0.29
20 21:56 NE 16 10.00 Thunderstorm Light Rain BKN005 BKN009CB OVC042 64 62.1 93% 30.17 1021.2 0.04 0.09
20 20:56 NE 13 10.00 Light Rain BKN006 OVC041 64.9 63 93% 30.18 1021.9 0.05
20 19:56 E 12 10.00 Overcast SCT006 OVC033 66 64 93% 30.18 1021.8
20 18:56 SE 9 10.00 Overcast FEW004 OVC039 64.9 63 64.9 60.1 93% 30.19 1022.2 0.01 0.83
20 17:56 SE 12 5.00 Light Rain Fog/Mist SCT004 BKN034 OVC060 63 61 93% 30.23 1023.4 0.19
20 16:56 E 7 2.00 Thunderstorm Heavy Rain Fog/Mist BKN006CB BKN046 OVC075 61 59 93% 30.26 1024.7 0.26
20 15:56 E 12 3.00 Thunderstorm Light Rain Fog/Mist OVC006CB 60.1 59 96% 30.26 1024.8 0.14 0.37
20 14:56 E 12 10.00 Thunderstorm Light Rain BKN010CB OVC042 60.1 57.9 93% 30.27 1024.9 0.07
20 13:56 E 13 5.00 Rain Fog/Mist BKN012 BKN022 OVC070 60.1 57.9 93% 30.26 1024.7 0.16
20 12:56 NE 8 9.00 Thunderstorm Rain BKN012CB BKN049 OVC100 61 57 63 61 87% 30.31 1026.5 0.01 0.46
20 11:56 E 16 6.00 Light Rain Fog/Mist FEW009 BKN100 OVC250 61 57.9 90% 30.29 1025.5 0.12
20 10:56 E 7 5.00 Light Rain Fog/Mist FEW020 BKN060 OVC110 63 60.1 90% 30.33 1026.8 0.23
20 09:56 NE 3 8.00 Light Rain FEW027 OVC041 63 60.1 90% 30.34 1027.3 0.06 0.1
20 08:56 E 8 9.00 Light Rain FEW025 OVC041 63 59 87% 30.31 1026.2 0.02
20 06:56 E 9 10.00 Overcast OVC045 62.1 57.9 63 61 86% 30.29 1025.3 0.04
20 05:56 E 10 10.00 Light Rain FEW025 SCT060 OVC110 62.1 57.9 86% 30.3 1025.6 0.02
20 04:56 N 3 10.00 Light Rain OVC060 62.1 57.9 86% 30.33 1026.6 0.01
20 03:56 E 5 10.00 Mostly Cloudy BKN060 62.1 57.9 86% 30.31 1025.9 0.01
20 02:56 E 6 10.00 Partly Cloudy SCT110 62.1 57.9 86% 30.29 1025.4
20 01:56 E 8 10.00 Overcast SCT090 OVC120 62.1 57.9 86% 30.31 1026.2 0.01
20 00:56 NE 10 9.00 Rain OVC090 62.1 57.9 71.1 62.1 86% 30.32 1026.6 0.01 0.01
19 23:56 NW 5 10.00 Overcast OVC095 64 55.9 75% 30.33 1026.9
19 22:56 NE 6 10.00 Mostly Cloudy BKN100 BKN200 64 55.9 75% 30.3 1025.9
19 21:56 E 6 10.00 Mostly Cloudy BKN110 BKN180 64.9 55.9 73% 30.29 1025.5
19 20:56 E 10 10.00 Mostly Cloudy SCT120 BKN250 66 55 68% 30.28 1025.0
19 19:56 E 9 10.00 Mostly Cloudy FEW040 BKN110 BKN250 68 55 63% 30.28 1025.1
19 18:56 E 12 10.00 Mostly Cloudy FEW040 BKN100 BKN250 71.1 55 72 68 57% 30.27 1024.9
19 17:56 E 10 10.00 Mostly Cloudy FEW040 BKN100 BKN250 71.1 54 55% 30.28 1025.0
19 16:56 E 8 10.00 Mostly Cloudy FEW039 SCT100 BKN250 71.1 54 55% 30.28 1025.1
19 15:56 N 8 10.00 Mostly Cloudy SCT038 BKN100 BKN250 71.1 54 55% 30.29 1025.4
19 14:56 NE 6 10.00 Mostly Cloudy SCT038 BKN120 BKN250 71.1 54 55% 30.29 1025.5
19 13:56 NE 3 10.00 Mostly Cloudy SCT034 BKN130 69.1 54 59% 30.3 1025.7
19 12:56 NE 5 10.00 Mostly Cloudy SCT028 BKN250 68 54 68 59 61% 30.31 1026.1
19 11:56 N 9 10.00 Overcast SCT028 SCT190 OVC250 66.9 54 63% 30.3 1025.8
19 10:56 N 8 10.00 Overcast FEW020 BKN130 OVC250 64.9 54 68% 30.28 1025.2
19 09:56 N 12 10.00 Mostly Cloudy SCT017 BKN130 BKN250 64 55 73% 30.26 1024.6
19 08:56 N 8 10.00 Mostly Cloudy FEW020 SCT140 BKN250 63 55.9 78% 30.24 1024.0
19 07:56 NW 5 10.00 Overcast BKN110 OVC250 60.1 55 84% 30.23 1023.7
19 06:56 W 3 10.00 Overcast BKN150 OVC250 59 55 60.1 57.9 87% 30.2 1022.5
19 05:56 NW 5 10.00 Overcast BKN150 OVC250 57.9 54 87% 30.17 1021.3
19 04:56 Vrbl 3 10.00 Overcast OVC140 59 55 87% 30.13 1020.0
Date Time (cdt) Wind (mph) Vis. (mi.) Weather Sky Cond. Air Dwpt Max. Min. Relative Humidity Wind Chill (°F) Heat Index (°F) altimeter (in) sea level (mb) 1 hr 3 hr 6 hr
6 hour
Temperature (ºF) Pressure Precipitation (in)